FW7111 Weather Reports


time (UTC)temp
C
wind
direction
speed
KPH
gust
KPH
rain 1hr
cm
rain 24hr
cm
rain mn
cm
humidity
%
barometer
mb
20260510190525 27 47 0.0 1.6 0.00 0.00 0.00 34 1013.7
20260510185526 27 48 0.0 1.6 0.00 0.00 0.00 34 1013.7
20260510184025 27 38 1.6 3.2 0.00 0.00 0.00 35 1013.9
20260510183525 27 73 1.6 4.8 0.00 0.00 0.00 35 1013.9
20260510183027 27 121 1.6 4.8 0.00 0.00 0.00 36 1014.1
20260510182544 27 245 3.2 4.8 0.00 0.00 0.00 37 1014.0
20260510181526 26 97 1.6 3.2 0.00 0.00 0.00 35 1014.2
20260510181025 27 59 1.6 3.2 0.00 0.00 0.00 41 1014.1
20260510180526 26 44 0.0 1.6 0.00 0.00 0.00 40 1014.1
20260510180026 26 62 0.0 3.2 0.00 0.00 0.00 39 1014.2
20260510175526 26 68 0.0 3.2 0.00 0.00 0.00 39 1014.3
20260510174526 26 93 1.6 3.2 0.00 0.00 0.00 40 1014.3
20260510174025 26 69 1.6 3.2 0.00 0.00 0.00 41 1014.2
20260510173525 26 91 1.6 3.2 0.00 0.00 0.00 39 1014.2
20260510173025 26 86 0.0 3.2 0.00 0.00 0.00 38 1014.3
20260510172525 26 45 1.6 6.4 0.00 0.00 0.00 38 1014.4
20260510172025 26 40 1.6 3.2 0.00 0.00 0.00 39 1014.4
20260510171025 26 39 0.0 1.6 0.00 0.00 0.00 37 1014.3
20260510170525 26 59 0.0 3.2 0.00 0.00 0.00 37 1014.4
20260510170026 26 69 0.0 3.2 0.00 0.00 0.00 40 1014.4
20260510165025 26 69 0.0 3.2 0.00 0.00 0.00 40 1014.5
20260510164546 26 48 0.0 1.6 0.00 0.00 0.00 39 1014.5
20260510163026 26 43 0.0 1.6 0.00 0.00 0.00 43 1014.7
20260510162526 26 77 1.6 3.2 0.00 0.00 0.00 42 1014.7
20260510162040 26 78 0.0 3.2 0.00 0.00 0.00 42 1014.6
20260510161525 26 45 1.6 4.8 0.00 0.00 0.00 42 1014.8
20260510161026 26 41 1.6 3.2 0.00 0.00 0.00 45 1014.9
20260510160525 26 43 0.0 3.2 0.00 0.00 0.00 46 1014.8
20260510160026 26 73 1.6 3.2 0.00 0.00 0.00 46 1015.0
20260510155525 26 76 1.6 3.2 0.00 0.00 0.00 46 1015.0
20260510155025 27 65 1.6 1.6 0.00 0.00 0.00 46 1015.1
20260510154526 26 36 0.0 3.2 0.00 0.00 0.00 47 1015.1
20260510153540 26 43 0.0 1.6 0.00 0.00 0.00 48 1015.1
20260510153026 26 152 1.6 3.2 0.00 0.00 0.00 47 1015.2
20260510152526 26 132 1.6 3.2 0.00 0.00 0.00 46 1015.1
20260510152026 26 40 0.0 1.6 0.00 0.00 0.00 47 1015.1
20260510151526 26 39 0.0 1.6 0.00 0.00 0.00 48 1015.0
20260510151025 26 49 0.0 1.6 0.00 0.00 0.00 48 1015.0
20260510150526 26 70 0.0 1.6 0.00 0.00 0.00 48 1015.1
20260510150026 26 126 1.6 1.6 0.00 0.00 0.00 50 1015.1
20260510145526 26 65 1.6 3.2 0.00 0.00 0.00 50 1015.1
20260510145026 26 58 1.6 3.2 0.00 0.00 0.00 49 1015.1
20260510144526 26 57 1.6 6.4 0.00 0.00 0.00 51 1015.1
20260510143525 26 38 0.0 1.6 0.00 0.00 0.00 54 1015.0
20260510142526 26 46 0.0 1.6 0.00 0.00 0.00 54 1014.9
20260510142026 26 56 0.0 1.6 0.00 0.00 0.00 52 1014.9
20260510141526 25 64 1.6 3.2 0.00 0.00 0.00 54 1015.0
20260510140026 25 48 0.0 1.6 0.00 0.00 0.00 56 1015.0
20260510135526 25 52 0.0 1.6 0.00 0.00 0.00 59 1015.1
20260510135026 25 50 0.0 1.6 0.00 0.00 0.00 57 1015.0
20260510134526 25 52 0.0 1.6 0.00 0.00 0.00 56 1015.0
20260510134026 24 41 0.0 1.6 0.00 0.00 0.00 59 1014.9
20260510131525 22 43 0.0 1.6 0.00 0.00 0.00 71 1014.9
20260510131026 22 42 0.0 1.6 0.00 0.00 0.00 74 1014.6
20260510130526 22 45 0.0 0.0 0.00 0.00 0.00 77 1014.6
20260510130048 22 55 0.0 1.6 0.00 0.00 0.00 75 1014.5
20260510125526 22 52 0.0 1.6 0.00 0.00 0.00 76 1014.4
20260510125026 21 55 0.0 1.6 0.00 0.00 0.00 81 1014.5
20260510124526 21 37 0.0 0.0 0.00 0.00 0.00 83 1014.4
20260510124025 20 44 0.0 0.0 0.00 0.00 0.00 84 1014.5
20260510123026 19 44 0.0 0.0 0.00 0.00 0.00 90 1014.5
20260510122526 18 43 0.0 0.0 0.00 0.00 0.00 93 1014.3
20260510122026 17 44 0.0 0.0 0.00 0.00 0.00 94 1014.3
20260510121526 17 45 0.0 0.0 0.00 0.00 0.00 95 1014.3
20260510121026 17 46 0.0 0.0 0.00 0.00 0.00 96 1014.2
20260510115526 16 45 0.0 0.0 0.00 0.00 0.00 98 1014.1
20260510115026 16 45 0.0 0.0 0.00 0.00 0.00 98 1014.1
20260510114525 16 45 0.0 0.0 0.00 0.00 0.00 98 1014.0
20260510114025 16 45 0.0 0.0 0.00 0.00 0.00 99 1014.0
20260510113526 15 43 0.0 0.0 0.00 0.00 0.00 99 1013.8
20260510113025 15 43 0.0 0.0 0.00 0.00 0.00 99 1013.8
20260510112525 15 43 0.0 0.0 0.00 0.00 0.00 99 1013.7
20260510112026 15 43 0.0 0.0 0.00 0.00 0.00 99 1013.6
20260510111026 15 43 0.0 0.0 0.00 0.00 0.00 99 1013.5
20260510110525 15 43 0.0 0.0 0.00 0.00 0.00 99 1013.4
20260510104526 15 42 0.0 0.0 0.00 0.00 0.00 99 1013.4
20260510104026 15 41 0.0 0.0 0.00 0.00 0.00 99 1013.2
20260510103526 15 41 0.0 0.0 0.00 0.00 0.00 99 1013.1
20260510103044 15 42 0.0 0.0 0.00 0.00 0.00 99 1013.0
20260510102526 15 42 0.0 0.0 0.00 0.00 0.00 99 1012.9
20260510102026 15 42 0.0 0.0 0.00 0.00 0.00 99 1012.8
20260510101525 15 42 0.0 0.0 0.00 0.00 0.00 99 1012.7
20260510100526 15 42 0.0 0.0 0.00 0.00 0.00 99 1012.4
20260510100026 15 42 0.0 0.0 0.00 0.00 0.00 99 1012.4
20260510095527 15 42 0.0 0.0 0.00 0.00 0.00 99 1012.3
20260510094525 15 42 0.0 0.0 0.00 0.00 0.00 99 1012.2
20260510093525 15 42 0.0 0.0 0.00 0.00 0.00 99 1012.2
20260510093026 15 43 0.0 0.0 0.00 0.00 0.00 99 1012.2
20260510092526 15 43 0.0 0.0 0.00 0.00 0.00 99 1012.1
20260510091026 15 43 0.0 0.0 0.00 0.00 0.00 99 1012.0
20260510090526 15 43 0.0 0.0 0.00 0.00 0.00 99 1011.9
20260510090026 15 43 0.0 0.0 0.00 0.00 0.00 99 1012.0
20260510085526 15 43 0.0 0.0 0.00 0.00 0.00 99 1012.0
20260510085031 15 42 0.0 0.0 0.00 0.00 0.00 99 1011.9
20260510084526 15 42 0.0 0.0 0.00 0.00 0.00 99 1011.7
20260510084049 15 42 0.0 0.0 0.00 0.00 0.00 99 1011.8
20260510083526 15 42 0.0 0.0 0.00 0.00 0.00 99 1011.7
20260510082526 15 42 0.0 0.0 0.00 0.00 0.00 99 1011.6
20260510082026 15 42 0.0 0.0 0.00 0.00 0.00 99 1011.7
20260510081537 15 42 0.0 0.0 0.00 0.00 0.00 98 1011.7
20260510080526 15 42 0.0 0.0 0.00 0.00 0.00 98 1011.5
20260510080027 15 42 0.0 0.0 0.00 0.00 0.00 98 1011.6
20260510075526 15 42 0.0 0.0 0.00 0.00 0.00 98 1011.6
20260510075026 15 43 0.0 0.0 0.00 0.00 0.00 98 1011.5
20260510074526 15 42 0.0 0.0 0.00 0.00 0.00 98 1011.5
20260510074026 15 42 0.0 0.0 0.00 0.00 0.00 98 1011.4
20260510073525 15 42 0.0 0.0 0.00 0.00 0.00 98 1011.3
20260510073053 15 42 0.0 0.0 0.00 0.00 0.00 98 1011.3
20260510072526 15 42 0.0 0.0 0.00 0.00 0.00 98 1011.2
20260510072026 15 42 0.0 0.0 0.00 0.00 0.00 98 1011.2
20260510071527 15 42 0.0 0.0 0.00 0.00 0.00 98 1011.3
20260510071025 15 42 0.0 0.0 0.00 0.00 0.00 98 1011.5
20260510070526 15 42 0.0 0.0 0.00 0.00 0.00 98 1011.5
20260510070026 16 42 0.0 0.0 0.00 0.00 0.00 97 1011.5
20260510065025 16 42 0.0 0.0 0.00 0.00 0.00 97 1011.5
20260510064525 16 42 0.0 0.0 0.00 0.00 0.00 97 1011.5
20260510064026 16 42 0.0 0.0 0.00 0.00 0.00 97 1011.5
20260510063526 16 42 0.0 0.0 0.00 0.00 0.00 97 1011.5
20260510063026 16 42 0.0 0.0 0.00 0.00 0.00 97 1011.4
20260510062526 16 42 0.0 0.0 0.00 0.00 0.00 97 1011.2
20260510062026 16 42 0.0 0.0 0.00 0.00 0.00 97 1011.2
20260510061526 16 42 0.0 0.0 0.00 0.00 0.00 97 1011.5
20260510061026 16 42 0.0 0.0 0.00 0.00 0.00 97 1011.4
20260510060025 16 42 0.0 0.0 0.00 0.00 0.00 97 1011.5
20260510055026 16 42 0.0 0.0 0.00 0.00 0.00 97 1011.6
20260510054526 16 42 0.0 0.0 0.00 0.00 0.00 97 1011.5
20260510054026 16 42 0.0 0.0 0.00 0.00 0.00 97 1011.6
20260510053526 16 43 0.0 0.0 0.00 0.00 0.00 97 1011.7
20260510053026 16 43 0.0 0.0 0.00 0.00 0.00 97 1011.8
20260510052526 16 44 0.0 0.0 0.00 0.00 0.00 97 1011.8
20260510052044 16 44 0.0 0.0 0.00 0.00 0.00 97 1011.9
20260510051526 16 44 0.0 0.0 0.00 0.00 0.00 97 1011.9
20260510051026 16 44 0.0 0.0 0.00 0.00 0.00 97 1011.8
20260510050526 16 44 0.0 0.0 0.00 0.00 0.00 97 1011.8
20260510050026 16 44 0.0 0.0 0.00 0.00 0.00 97 1011.8
20260510045526 16 44 0.0 0.0 0.00 0.00 0.00 97 1011.9
20260510045026 16 44 0.0 0.0 0.00 0.00 0.00 97 1012.0
20260510044526 16 44 0.0 0.0 0.00 0.00 0.00 97 1012.0
20260510044026 16 44 0.0 0.0 0.00 0.00 0.00 97 1012.0
20260510043526 16 44 0.0 0.0 0.00 0.00 0.00 97 1012.0
20260510043026 16 44 0.0 0.0 0.00 0.00 0.00 97 1012.0
20260510042025 16 44 0.0 0.0 0.00 0.00 0.00 96 1011.9
20260510041526 16 44 0.0 0.0 0.00 0.00 0.00 96 1011.9
20260510041026 16 44 0.0 0.0 0.00 0.00 0.00 96 1011.9
20260510040526 16 44 0.0 0.0 0.00 0.00 0.00 96 1011.9
20260510035525 16 44 0.0 0.0 0.00 0.00 0.00 96 1011.8
20260510032525 17 44 0.0 0.0 0.00 0.00 0.00 95 1011.6
20260510032026 17 44 0.0 0.0 0.00 0.00 0.00 95 1011.6
20260510031526 17 44 0.0 0.0 0.00 0.00 0.00 95 1011.6
20260510031025 17 44 0.0 0.0 0.00 0.00 0.00 95 1011.6
20260510030526 17 44 0.0 0.0 0.00 0.00 0.00 95 1011.5
20260510023526 17 44 0.0 0.0 0.00 0.00 0.00 94 1011.5
20260510023027 17 44 0.0 0.0 0.00 0.00 0.00 94 1011.5
20260510022031 17 44 0.0 0.0 0.00 0.00 0.00 94 1011.5
20260510020941 17 44 0.0 0.0 0.00 0.00 0.00 93 1011.3
20260510020026 17 44 0.0 0.0 0.00 0.00 0.00 92 1011.4
20260510015026 17 44 0.0 0.0 0.00 0.00 0.00 91 1011.2
20260510014525 17 44 0.0 0.0 0.00 0.00 0.00 91 1011.0
20260510014026 18 44 0.0 0.0 0.00 0.00 0.00 91 1010.9
20260510013526 18 44 0.0 0.0 0.00 0.00 0.00 90 1010.9
20260510013025 18 44 0.0 0.0 0.00 0.00 0.00 90 1010.9
20260510012526 18 43 0.0 0.0 0.00 0.00 0.00 89 1010.9
20260510012025 18 43 0.0 0.0 0.00 0.00 0.00 89 1010.8
20260510011526 18 43 0.0 0.0 0.00 0.00 0.00 89 1010.8
20260510011025 18 44 0.0 0.0 0.00 0.00 0.00 88 1010.7
20260510010526 18 44 0.0 0.0 0.00 0.00 0.00 87 1010.6
20260510010026 18 43 0.0 0.0 0.00 0.00 0.00 87 1010.5
20260510005545 18 43 0.0 0.0 0.00 0.00 0.00 86 1010.5
20260510005025 19 43 0.0 0.0 0.00 0.00 0.00 86 1010.6
20260510004525 19 43 0.0 0.0 0.00 0.00 0.00 85 1010.5
20260510004026 19 43 0.0 0.0 0.00 0.00 0.00 85 1010.4
20260510003526 19 42 0.0 0.0 0.00 0.00 0.00 85 1010.4
20260510003025 20 44 0.0 0.0 0.00 0.00 0.00 84 1010.3
20260510002025 20 46 0.0 0.0 0.00 0.00 0.00 83 1010.5
20260510001525 20 46 0.0 0.0 0.00 0.00 0.00 82 1010.5
20260510001025 20 46 0.0 0.0 0.00 0.00 0.00 82 1010.3
20260510000525 20 46 0.0 0.0 0.00 0.00 0.00 81 1010.3
20260510000025 20 46 0.0 0.0 0.00 0.00 0.00 80 1010.3
20260509235526 20 46 0.0 0.0 0.00 0.00 0.00 80 1010.4
20260509235025 21 46 0.0 0.0 0.00 0.00 0.00 79 1010.3
20260509234026 21 47 0.0 0.0 0.00 0.00 0.00 78 1010.0
20260509233525 21 47 0.0 0.0 0.00 0.00 0.00 77 1009.8
20260509233026 21 42 0.0 0.0 0.00 0.00 0.00 76 1009.9
20260509232525 21 33 0.0 1.6 0.00 0.00 0.00 76 1009.9
20260509232028 21 44 0.0 1.6 0.00 0.00 0.00 77 1009.9
20260509231526 21 43 0.0 0.0 0.00 0.00 0.00 76 1009.7
20260509231026 21 43 0.0 1.6 0.00 0.00 0.00 76 1009.7
20260509230525 21 39 0.0 0.0 0.00 0.00 0.00 75 1009.7
20260509225526 22 42 0.0 3.2 0.00 0.00 0.00 74 1009.5
20260509225025 22 53 0.0 3.2 0.00 0.00 0.00 74 1009.4
20260509224025 22 80 0.0 1.6 0.00 0.00 0.00 75 1009.6
20260509223530 22 46 0.0 3.2 0.00 0.00 0.00 75 1009.7
20260509222525 22 57 0.0 1.6 0.00 0.00 0.00 74 1009.6
20260509222026 22 30 0.0 1.6 0.00 0.00 0.00 74 1009.7
20260509221525 22 39 0.0 1.6 0.00 0.00 0.00 74 1009.8
20260509220525 22 60 0.0 3.2 0.00 0.00 0.00 73 1009.7
20260509220025 21 62 0.0 3.2 0.00 0.00 0.00 73 1009.7
20260509215526 22 124 1.6 4.8 0.00 0.00 0.00 74 1009.7
20260509215038 22 31 0.0 0.0 0.00 0.00 0.00 74 1009.7
20260509214525 21 39 0.0 1.6 0.00 0.00 0.00 74 1009.6
20260509214026 21 56 0.0 3.2 0.00 0.00 0.00 74 1009.7
20260509213526 21 78 0.0 1.6 0.00 0.00 0.00 73 1009.6
20260509213026 22 45 0.0 1.6 0.00 0.00 0.00 73 1009.6
20260509212532 22 47 0.0 1.6 0.00 0.00 0.00 73 1009.5
20260509212025 22 32 0.0 1.6 0.00 0.00 0.00 73 1009.4
20260509211525 22 78 0.0 1.6 0.00 0.00 0.00 72 1009.5
20260509211025 22 36 0.0 1.6 0.00 0.00 0.00 72 1009.4
20260509210526 22 72 1.6 4.8 0.00 0.00 0.00 72 1009.4
20260509205525 21 38 0.0 1.6 0.00 0.00 0.00 73 1009.4
20260509205026 21 38 0.0 1.6 0.00 0.00 0.00 73 1009.6
20260509204526 21 41 0.0 1.6 0.00 0.00 0.00 73 1009.6
20260509204026 21 48 0.0 0.0 0.00 0.00 0.00 73 1009.6
20260509203526 21 45 0.0 0.0 0.00 0.00 0.00 72 1009.5
20260509203026 21 28 0.0 1.6 0.00 0.00 0.00 71 1009.5
20260509202525 21 40 0.0 1.6 0.00 0.00 0.00 72 1009.6
20260509201526 21 53 0.0 1.6 0.00 0.00 0.00 72 1009.7
20260509201025 21 52 0.0 1.6 0.00 0.00 0.00 73 1009.7
20260509200526 21 36 0.0 1.6 0.00 0.00 0.00 72 1009.8
20260509200026 21 51 0.0 3.2 0.00 0.00 0.00 72 1009.9
20260509195526 21 50 0.0 1.6 0.00 0.00 0.00 71 1009.9
20260509194540 21 85 1.6 3.2 0.00 0.00 0.00 71 1010.0
20260509194026 21 40 0.0 1.6 0.00 0.00 0.00 71 1010.0
20260509193526 21 70 0.0 1.6 0.00 0.00 0.00 70 1010.1
20260509193026 21 31 0.0 1.6 0.00 0.00 0.00 70 1010.2
20260509192526 21 38 0.0 3.2 0.00 0.00 0.00 69 1010.3
20260509191526 21 81 1.6 3.2 0.00 0.00 0.00 68 1010.2
20260509191026 21 39 0.0 1.6 0.00 0.00 0.00 66 1010.1